Regional Weather Roundup
Issued by NWS

Home | Current Version | Previous Version | Text Only | Print | Product List | Glossary On
Versions: 1 2 3 4 5 6 7 8 9 10 11 12 13 14 15 16 17 18 19 20 21 22 23 24 25 26 27
000
ASUS45 KREV 292210
RWRNV
NEVADA REGIONAL WEATHER ROUNDUP
NATIONAL WEATHER SERVICE RENO NV
300 PM PDT THU SEP 29 2016

NOTE: "FAIR" INDICATES FEW OR NO CLOUDS BELOW 12,000 FEET WITH NO
SIGNIFICANT WEATHER AND/OR OBSTRUCTIONS TO VISIBILITY.

NVZ001-003-004-292300-
WESTERN NEVADA

CITY           SKY/WX    TMP DP  RH WIND       PRES   REMARKS
RENO           MOSUNNY   82  30  15 VRB5      30.11F
CARSON CITY    FAIR      82  32  16 W12G23    30.15F
MINDEN         FAIR      82  32  16 W21G30    30.14F
PYRAMID LAKE     N/A     77 N/A N/A NW6         N/A
FALLON         MOSUNNY   85  36  17 MISG      30.07F
LOVELOCK       MOSUNNY   84  33  16 VRB6      30.07F
HAWTHORNE        N/A    N/A N/A N/A MISG        N/A
$$

NVZ002-CAZ072-073-292300-
NORTHERN AND CENTRAL SIERRA

CITY           SKY/WX    TMP DP  RH WIND       PRES   REMARKS
S. LAKE TAHOE  SUNNY     71  33  24 SW10G18   30.25F
TRUCKEE        SUNNY     73  34  23 S15G23    30.25S
SQUAW VLY 8000 NOT AVBL
SUSANVILLE     SUNNY     82  27  13 W14G24    30.10F
MAMMOTH LAKES  CLOUDY    69  33  26 CALM      30.31R
BRIDGEPORT       N/A     73  29  19 SW15G21   30.25F
$$

NVZ030-031-036-292300-
NORTHERN NEVADA

CITY           SKY/WX    TMP DP  RH WIND       PRES   REMARKS
ELKO           MOSUNNY   80  35  19 VRB5      30.14F
WINNEMUCCA     SUNNY     85  34  16 W13       30.08F
WENDOVER       SUNNY    N/A N/A N/A MISG        N/A
$$

NVZ035-037-292300-
CENTRAL NEVADA

CITY           SKY/WX    TMP DP  RH WIND       PRES   REMARKS
ELY            PTSUNNY   70  41  34 E6        30.28F
EUREKA           N/A     72  38  29 S15G22    30.23S
$$

NVZ013-014-292300-
SOUTH CENTRAL NEVADA

CITY           SKY/WX    TMP DP  RH WIND       PRES   REMARKS
TONOPAH        MOSUNNY   76  38  25 S12       30.22F
$$

NVZ017-020-022-292300-
SOUTHERN NEVADA

CITY           SKY/WX    TMP DP  RH WIND       PRES   REMARKS
LAS VEGAS      MOSUNNY   89  46  22 E10       30.06F
N. LAS VEGAS   MOSUNNY   88  47  24 VRB6      30.05F
NELLIS AFB     MOSUNNY   89  49  25 VRB5      30.04F
HENDERSON      PTSUNNY   86  51  29 SE5       30.09F
MERCURY        MOSUNNY   85  43  22 S7        30.11F
$$




USA.gov is the U.S. government's official web portal to all federal, state and local government web resources and services.